Wind_Speed
30 29 28 27 26 25 24 24 24 22 21 20 19 18 18 17 16 15 15 14 14 13 13 12 12 11 10 10 10 10 10 9 10 10 10 11 11 12 12 12 12 13 14
33 32 31 30 29 28 26 25 25 25 23 22 21 21 20 19 18 17 17 16 15 14 14 14 13 13 12 12 11 11 11 11 11 11 11 11 12 13 13 14 14 14 15
35 34 33 33 31 30 29 28 27 26 25 24 23 22 22 21 19 19 18 17 17 16 15 15 15 14 14 13 13 13 12 12 12 12 12 13 13 14 14 15 15 16 16
37 36 35 35 33 32 31 31 29 28 27 26 25 25 24 23 22 21 20 19 19 18 17 16 16 16 15 15 14 14 14 13 13 13 14 14 15 15 15 16 16 17 17
38 37 36 36 35 34 33 33 31 30 29 29 28 27 26 26 24 23 22 21 21 20 19 19 18 17 17 17 16 15 15 15 15 15 15 15 16 17 17 17 18 18 18
38 38 38 37 37 36 35 34 33 33 31 31 30 29 28 28 27 25 25 23 23 22 22 21 20 19 19 18 18 18 17 17 17 16 17 17 18 18 18 19 19 19 20
40 40 39 39 39 38 37 37 36 35 34 32 32 31 31 30 29 28 27 26 25 24 24 23 22 22 21 20 20 20 19 19 19 19 18 19 19 19 20 20 21 21 22
41 41 40 40 40 39 39 38 38 37 36 35 34 33 32 31 30 30 29 28 27 27 26 25 24 23 23 22 21 21 21 21 21 21 21 21 21 21 22 22 23 23 23
44 42 41 41 40 40 40 40 39 39 38 37 36 36 35 34 32 31 30 30 29 28 27 26 26 25 24 24 23 23 23 23 23 23 23 23 23 23 24 24 25 25 25
46 43 41 42 41 41 41 41 40 40 40 39 38 37 36 36 35 34 33 32 31 30 29 28 28 27 27 26 26 26 25 25 25 25 25 25 25 26 26 27 27 27 28
47 46 44 42 42 42 42 42 42 42 42 41 39 38 37 37 37 36 36 34 33 32 31 31 30 30 29 29 28 28 28 27 27 27 28 28 28 28 28 29 29 30 30
48 48 47 45 43 42 42 43 43 43 43 42 41 40 39 38 38 37 37 36 36 35 34 33 33 32 31 31 31 30 30 30 30 30 30 30 30 31 31 31 31 32 32
48 48 47 47 45 43 42 43 44 44 44 43 42 41 40 39 39 38 38 38 37 36 36 36 35 34 33 33 33 33 32 32 32 32 32 32 33 33 33 33 34 34 35
49 49 48 48 48 47 45 44 44 45 45 45 43 42 41 40 40 39 39 39 38 37 37 37 37 37 36 35 35 35 35 34 34 34 34 34 35 35 35 35 36 36 36
52 51 50 49 49 48 47 47 47 46 46 46 45 43 42 41 40 40 40 40 40 39 38 38 39 39 38 38 38 37 37 37 37 37 37 37 37 37 37 38 38 38 38
53 52 51 50 50 49 48 49 48 48 48 48 48 47 44 43 42 42 41 41 41 41 41 40 40 40 40 40 40 40 40 39 39 39 39 39 39 39 40 40 40 40 40
53 53 52 52 51 50 50 50 49 48 49 49 49 49 47 45 44 44 43 43 42 43 43 41 41 41 41 41 42 42 42 42 42 42 42 42 41 42 42 42 43 43 42
53 53 53 53 54 53 52 52 51 50 50 50 50 49 48 46 45 45 45 45 44 44 44 43 43 43 43 44 44 44 44 44 44 44 44 44 44 44 45 44 44 44 44
53 53 55 55 55 55 55 54 53 53 52 52 52 51 50 47 46 46 46 46 46 46 46 46 45 45 46 46 46 46 46 46 46 46 46 46 46 46 46 46 46 45 46
53 54 55 55 55 55 56 56 55 54 54 54 54 53 51 50 49 47 47 48 48 48 47 48 48 48 48 48 48 48 48 48 47 48 48 47 47 47 48 47 47 47 47
52 54 56 56 56 56 56 56 56 56 56 55 54 54 52 51 51 50 49 49 50 48 48 48 49 50 50 50 49 49 48 48 49 49 49 49 49 49 50 50 49 49 49
51 52 54 56 56 57 57 56 57 56 56 56 55 55 53 52 51 52 52 51 51 50 50 51 51 50 50 50 50 50 50 50 50 50 50 50 51 51 51 51 51 51 52
49 52 52 54 55 56 56 55 56 56 57 57 56 56 54 55 54 53 53 53 52 52 52 52 52 50 50 50 50 50 50 51 50 51 52 52 52 52 52 52 52 52 53
48 49 51 52 54 55 56 55 55 56 56 57 57 56 55 55 54 53 53 53 53 52 52 53 52 52 52 52 51 51 51 52 52 52 53 53 53 53 52 52 52 53 54
47 47 48 49 51 52 54 54 55 55 56 57 57 56 55 55 55 54 54 53 52 53 53 53 52 52 53 53 52 52 52 53 53 53 53 54 53 53 53 54 54 54 54
46 46 46 47 48 50 51 52 53 54 56 56 56 55 55 54 54 54 54 53 53 53 53 53 53 53 53 53 53 53 54 54 54 54 54 54 54 55 55 55 54 54 54
Wind_Direction
232 232 232 232 233 233 233 233 233 234 233 234 235 237 238 239 240 241 241 242 243 244 248 253 255 257 261 265 267 271 277 282 288 295 299 301 303 304 304 306 308 310 310
233 233 233 234 234 234 234 236 235 235 235 236 237 238 240 241 241 241 240 242 244 246 248 251 253 256 259 264 266 270 275 281 286 289 293 297 300 302 301 302 304 306 308
233 234 234 235 234 235 235 236 236 236 236 236 238 239 240 240 241 239 239 242 244 246 249 251 252 256 259 261 265 269 274 279 282 285 290 295 298 299 300 301 301 303 305
234 234 234 235 235 235 236 236 236 236 236 236 238 239 239 240 240 240 240 242 244 247 249 252 253 256 259 262 266 269 273 276 279 284 289 292 295 297 299 301 302 302 303
235 235 235 235 235 236 236 236 236 237 237 237 237 239 239 241 241 241 242 244 246 247 249 251 253 255 258 261 264 267 270 273 278 283 286 290 294 296 298 300 301 301 302
236 234 234 235 235 236 237 237 237 237 237 237 237 239 240 241 241 241 243 244 247 248 250 251 252 254 257 260 263 265 268 271 276 281 284 288 292 295 297 298 299 301 302
237 236 235 234 235 236 237 237 237 238 237 237 238 239 240 241 242 242 242 245 247 249 251 251 252 253 256 259 261 263 267 270 274 279 283 286 290 293 294 295 297 299 300
237 237 236 235 236 236 236 237 236 237 239 239 239 239 239 240 241 242 243 245 246 248 250 251 251 253 255 257 259 262 266 270 273 277 281 285 287 290 292 294 296 297 299
237 237 237 236 236 236 236 236 236 237 238 239 239 239 240 240 240 241 243 245 246 248 249 250 251 253 255 256 258 262 265 269 273 276 279 282 285 288 290 292 293 295 297
237 237 238 237 237 237 236 236 236 235 237 239 239 240 241 240 241 241 243 245 246 247 249 251 252 254 256 257 259 262 265 268 272 275 278 281 284 287 290 291 292 293 296
237 237 237 238 238 237 236 236 236 236 237 238 239 240 241 241 242 243 244 245 246 248 250 251 252 254 256 258 261 263 265 268 271 274 277 280 283 286 289 290 290 292 294
237 238 238 238 238 238 238 237 236 236 236 237 239 240 241 242 242 243 245 246 247 249 250 251 252 254 256 259 262 264 266 268 270 274 276 280 282 284 287 288 289 291 292
237 237 238 238 238 237 237 235 234 235 236 237 238 240 241 242 243 244 245 246 247 249 250 251 253 254 257 259 261 264 266 269 271 274 276 278 280 282 284 286 288 289 290
238 238 238 239 238 238 238 236 234 236 237 238 238 239 241 242 243 243 245 245 246 248 250 251 254 256 257 259 261 264 267 269 272 274 276 277 280 281 283 284 286 288 289
238 238 239 239 240 240 242 240 238 238 238 239 239 239 240 241 242 244 245 245 247 248 250 252 254 256 257 259 261 264 266 269 271 274 275 277 279 280 281 283 284 286 288
238 238 239 240 240 241 242 240 240 240 240 240 240 239 240 242 243 244 245 247 248 250 251 252 255 256 257 259 261 264 266 268 271 273 275 276 278 279 280 281 283 284 286
238 238 239 240 240 240 241 241 241 241 241 242 241 241 243 244 245 246 246 247 250 252 253 254 256 257 258 259 261 264 266 269 271 273 275 276 277 278 279 280 282 283 285
238 239 240 240 240 241 241 241 241 241 242 242 242 243 244 245 246 247 248 249 250 252 254 255 256 258 259 261 262 264 267 269 270 272 274 276 277 277 279 280 282 283 285
239 240 240 240 241 241 242 242 243 243 243 243 243 244 245 246 248 248 249 250 251 252 255 256 257 258 260 262 263 265 266 268 270 272 274 276 276 277 278 279 281 283 284
239 239 239 240 240 241 242 243 243 244 244 244 245 246 245 247 249 250 251 251 251 252 255 256 257 259 261 262 264 265 266 268 270 272 274 275 275 276 277 279 281 282 284
240 241 241 241 241 241 242 243 244 244 244 245 245 246 246 248 250 250 251 252 252 253 255 257 258 260 261 262 263 265 266 268 270 272 273 275 276 276 277 279 281 282 283
241 242 242 242 242 242 242 243 244 244 245 245 246 246 246 248 250 251 252 253 254 255 256 259 260 261 262 263 265 266 268 269 270 272 273 274 276 277 278 279 280 282 283
243 244 244 244 243 242 242 243 244 244 245 245 246 245 246 248 250 251 252 254 256 257 258 260 262 262 263 264 266 268 269 270 271 272 273 274 276 278 278 279 281 282 283
244 245 245 244 243 243 243 243 244 245 245 245 244 245 247 248 249 250 252 255 256 258 259 260 262 263 263 265 267 268 269 270 271 273 274 275 276 278 279 280 281 282 283
243 243 243 243 243 243 243 244 244 244 244 244 245 246 247 249 249 250 253 254 256 258 259 261 262 263 263 265 266 268 270 271 272 273 274 276 277 278 278 279 281 282 282
243 243 242 243 243 244 243 244 245 244 244 244 245 247 248 249 250 251 253 255 256 258 260 261 261 262 263 264 266 268 271 272 273 274 274 275 277 277 278 279 280 281 281
Height
5814 5817 5819 5821 5823 5825 5826 5828 5830 5832 5834 5835 5837 5838 5839 5841 5842 5843 5843 5844 5845 5846 5846 5846 5847 5847 5847 5847 5847 5847 5846 5846 5846 5845 5844 5843 5842 5841 5839 5838 5837 5835 5834
5808 5810 5813 5815 5817 5819 5821 5822 5824 5827 5829 5831 5832 5834 5835 5837 5838 5839 5840 5841 5842 5842 5843 5843 5844 5844 5844 5844 5844 5844 5844 5844 5843 5842 5841 5840 5839 5838 5837 5836 5834 5833 5831
5800 5803 5806 5808 5810 5812 5815 5817 5819 5821 5824 5826 5828 5829 5831 5832 5834 5835 5836 5837 5838 5839 5839 5840 5841 5841 5841 5841 5841 5841 5841 5841 5840 5839 5839 5838 5837 5835 5834 5833 5831 5830 5828
5791 5794 5797 5800 5803 5805 5808 5810 5813 5815 5818 5820 5822 5824 5826 5827 5829 5831 5832 5833 5834 5835 5836 5837 5837 5837 5838 5838 5838 5838 5838 5837 5837 5836 5836 5835 5834 5832 5831 5830 5828 5826 5825
5782 5785 5788 5792 5795 5798 5800 5803 5806 5809 5811 5814 5816 5818 5820 5822 5824 5826 5827 5829 5830 5831 5832 5832 5833 5833 5834 5834 5834 5834 5834 5834 5833 5833 5832 5831 5830 5829 5827 5826 5824 5823 5821
5773 5776 5779 5783 5786 5789 5792 5796 5799 5801 5804 5807 5809 5812 5814 5816 5818 5820 5822 5823 5825 5826 5827 5828 5828 5829 5829 5830 5830 5830 5830 5830 5829 5829 5828 5827 5826 5825 5823 5822 5820 5819 5817
5764 5767 5770 5773 5777 5780 5784 5787 5791 5793 5796 5799 5802 5805 5807 5810 5812 5814 5816 5818 5819 5821 5822 5823 5823 5824 5825 5825 5825 5826 5826 5825 5825 5825 5824 5823 5822 5821 5819 5818 5816 5814 5812
5754 5758 5761 5764 5767 5771 5775 5778 5782 5785 5788 5792 5795 5798 5800 5803 5805 5807 5809 5811 5813 5815 5816 5817 5818 5819 5819 5820 5820 5820 5820 5820 5820 5820 5819 5818 5817 5816 5814 5813 5811 5809 5807
5744 5748 5752 5755 5758 5762 5765 5769 5773 5776 5780 5783 5787 5790 5793 5795 5798 5801 5803 5805 5807 5808 5810 5811 5812 5813 5814 5814 5815 5815 5815 5815 5815 5814 5813 5813 5811 5810 5809 5807 5806 5804 5802
5734 5738 5742 5745 5749 5752 5756 5760 5763 5767 5770 5774 5778 5781 5785 5787 5790 5793 5795 5797 5799 5801 5803 5805 5806 5807 5807 5808 5808 5809 5809 5809 5809 5808 5807 5807 5805 5804 5803 5801 5800 5798 5796
5724 5728 5732 5735 5739 5743 5746 5750 5753 5757 5761 5764 5769 5773 5776 5779 5781 5785 5787 5790 5792 5794 5796 5797 5799 5800 5801 5801 5802 5802 5802 5802 5802 5802 5801 5800 5799 5798 5796 5794 5793 5791 5789
5714 5718 5722 5726 5730 5733 5737 5740 5744 5748 5752 5755 5759 5763 5767 5770 5773 5776 5779 5781 5783 5786 5788 5789 5791 5792 5793 5794 5795 5795 5795 5795 5795 5794 5794 5793 5792 5790 5789 5787 5786 5784 5782
5704 5708 5711 5716 5720 5723 5727 5730 5734 5738 5742 5746 5750 5754 5758 5761 5764 5767 5770 5772 5774 5777 5779 5781 5783 5784 5785 5786 5787 5787 5788 5788 5787 5787 5786 5785 5784 5783 5781 5780 5778 5776 5774
5693 5697 5701 5705 5709 5713 5717 5720 5724 5728 5733 5736 5740 5744 5748 5751 5755 5758 5761 5764 5766 5768 5770 5772 5774 5775 5777 5778 5779 5779 5779 5779 5779 5779 5778 5777 5776 5774 5773 5771 5769 5767 5765
5682 5686 5690 5694 5698 5702 5706 5711 5714 5718 5722 5726 5730 5734 5738 5741 5745 5748 5751 5754 5757 5759 5762 5763 5765 5767 5768 5769 5769 5770 5770 5770 5770 5770 5769 5768 5767 5765 5764 5762 5760 5758 5756
5670 5675 5679 5683 5687 5691 5696 5700 5704 5708 5712 5716 5720 5724 5727 5731 5735 5738 5741 5744 5747 5750 5752 5754 5756 5757 5758 5759 5760 5760 5761 5761 5761 5760 5759 5758 5757 5756 5754 5752 5750 5748 5746
5658 5662 5667 5671 5676 5680 5685 5689 5693 5697 5701 5705 5709 5713 5717 5721 5724 5728 5731 5734 5736 5739 5742 5744 5746 5747 5748 5749 5749 5750 5750 5750 5750 5750 5749 5747 5746 5745 5743 5741 5739 5737 5735
5645 5650 5655 5659 5664 5668 5673 5677 5682 5686 5690 5694 5698 5702 5706 5710 5714 5717 5720 5723 5725 5728 5731 5733 5735 5736 5737 5738 5739 5739 5739 5739 5739 5738 5737 5736 5735 5734 5732 5730 5728 5726 5723
5632 5637 5642 5646 5651 5655 5660 5665 5669 5674 5678 5682 5686 5691 5695 5699 5702 5706 5709 5712 5714 5717 5719 5722 5723 5725 5726 5727 5727 5727 5727 5727 5727 5726 5726 5724 5723 5721 5720 5718 5716 5714 5712
5619 5624 5628 5633 5637 5642 5647 5652 5656 5661 5666 5670 5674 5679 5683 5687 5691 5694 5697 5700 5702 5705 5707 5709 5711 5713 5714 5715 5715 5715 5716 5715 5715 5714 5713 5712 5711 5709 5708 5706 5704 5702 5699
5606 5610 5614 5619 5624 5629 5634 5638 5643 5648 5653 5657 5662 5666 5671 5675 5679 5682 5685 5688 5690 5693 5695 5697 5699 5700 5701 5702 5703 5703 5703 5703 5703 5702 5701 5700 5699 5697 5695 5693 5691 5689 5687
5593 5597 5601 5605 5610 5615 5620 5625 5630 5635 5640 5644 5649 5654 5659 5663 5666 5669 5673 5675 5678 5680 5683 5685 5686 5688 5689 5690 5690 5690 5691 5691 5691 5690 5688 5687 5685 5684 5682 5681 5678 5676 5673
5580 5584 5588 5592 5597 5602 5607 5612 5616 5621 5626 5631 5636 5641 5645 5650 5653 5656 5660 5662 5665 5667 5670 5672 5673 5675 5676 5677 5678 5678 5677 5676 5677 5676 5674 5674 5672 5670 5669 5667 5665 5662 5659
5569 5572 5575 5579 5584 5589 5594 5598 5603 5608 5613 5618 5623 5628 5633 5636 5639 5643 5646 5650 5652 5654 5657 5659 5661 5662 5662 5663 5663 5664 5663 5663 5662 5661 5660 5659 5658 5657 5655 5653 5651 5648 5645
5557 5560 5563 5567 5571 5576 5581 5586 5590 5594 5599 5604 5610 5615 5619 5623 5627 5630 5634 5637 5639 5641 5642 5644 5646 5647 5648 5649 5649 5649 5649 5648 5649 5648 5646 5645 5644 5642 5641 5639 5636 5633 5630
5546 5549 5551 5555 5560 5564 5569 5573 5577 5582 5587 5593 5598 5602 5606 5610 5613 5616 5619 5622 5625 5628 5629 5631 5632 5633 5634 5634 5635 5635 5635 5634 5633 5633 5632 5630 5629 5626 5626 5625 5622 5619 5616